Regional Weather Roundup
Issued by NWS Sterling, VA

Home | Current Version | Previous Version | Graphics & Text | Print | Product List | Glossary On
Versions: 1 2 3 4 5 6 7 8 9 10 11 12 13 14 15 16 17 18 19 20 21 22 23 24 25 26 27 28 29 30 31 32 33 34 35 36 37 38 39 40 41 42 43 44 45 46 47 48 49 50
000
ASUS41 KLWX 221810
RWRLWX

REGIONAL WEATHER ROUNDUP
NATIONAL WEATHER SERVICE BALTIMORE MD/WASHINGTON DC
200 PM EDT TUE JUL 22 2014

Note: "FAIR" indicates few or no clouds below 12,000 feet
with no significant weather and/or obstructions to visibility.
 TC=TEMPERATURE CELSIUS

 * =Non NWS site. Station does not report precipitation (e.g. rain,
    snow, etc.), thunder, or fog.

DCZ001-MDZ009-015-VAZ040>042-051-053>054-221900-
WASHINGTON METRO
  /KDAA//-FT BELVOIR

CITY           SKY/WX    TMP DP  RH WIND       PRES   REMARKS
WASHINGTON NAT PTSUNNY   86  69  56 S10       30.15F HX  90
DULLES         PTSUNNY   82  68  62 SW8       30.15F
ANDREWS AFB    CLOUDY    82  70  67 S9        30.15F
QUANTICO       CLOUDY    82  70  66 S5        30.16F
COLLEGE PARK*  CLOUDY    82  68  61 E5        30.15S
LEESBURG*      CLOUDY    84  72  65 S10       30.15F
MANASSAS*      MOSUNNY   82  72  69 S12       30.14F
GAITHERSBURG*  PTSUNNY   81  70  69 S7        30.18F

$$

MDZ006>007-011-014-221900-
BALTIMORE METRO

CITY           SKY/WX    TMP DP  RH WIND       PRES   REMARKS
BWI AIRPORT    PTSUNNY   81  68  64 SE9       30.14F
MD SCIENCE CTR   N/A     83  68  60 MISG      30.14F
MARTIN STATE   PTSUNNY   82  72  69 SE10      30.17S
ANNAPOLIS      CLOUDY    81  62  52 S10       30.16F
FORT MEADE*    CLOUDY    79  68  69 SE8       30.17F

$$

MDZ012-015-019>023-221900-
MARYLAND EASTERN SHORE

CITY           SKY/WX    TMP DP  RH WIND       PRES   REMARKS
OCEAN CITY     SUNNY     77  69  76 S7        30.18F
SALISBURY      NOT AVBL
BAY BRIDGE AP*   N/A     82  63  51 S5        30.16S
CAMBRIDGE*     SUNNY     86  61  42 S8        30.15F

$$

MDZ017>025-221900-
SOUTHERN MARYLAND

CITY           SKY/WX    TMP DP  RH WIND       PRES   REMARKS
PATUXENT RIVER PTSUNNY   82  67  60 SE8       30.16F
ST INIGOES     SUNNY     82  66  58 VRB6      30.16F
LEONARDTOWN*     N/A    N/A N/A N/A MISG        N/A

$$

MDZ003>005-221900-
NORTH CENTRAL MARYLAND

CITY           SKY/WX    TMP DP  RH WIND       PRES   REMARKS
FREDERICK*     MOSUNNY   84  75  74 SW7       30.16F HX  92
HAGERSTOWN APT PTSUNNY   82  69  64 SE10      30.14F
WESTMINSTER*   PTSUNNY   84  73  70 S6        30.17F HX  91

$$

MDZ501>502-221900-
WESTERN MARYLAND

CITY           SKY/WX    TMP DP  RH WIND       PRES   REMARKS
OAKLAND*       PTSUNNY   75  64  69 W3        30.22F
CUMBERLAND*    SUNNY     91  66  43 SE5       30.14F HX  94

$$

VAZ025>031-221900-
SHENANDOAH VALLEY

CITY           SKY/WX    TMP DP  RH WIND       PRES   REMARKS
WINCHESTER*    CLOUDY    82  68  61 SE9       30.15S
STAUNTON*      MOSUNNY   84  67  55 SE8       30.18F

$$

WVZ021-048>050-054>055-221900-
EASTERN WEST VIRGINIA PANHANDLE

CITY           SKY/WX    TMP DP  RH WIND       PRES   REMARKS
MARTINSBURG    PTSUNNY   85  67  54 SE7       30.14F
PETERSBURG*    MOSUNNY   86  57  37 CALM      30.12F

$$

VAZ036>039-050-221900-
CENTRAL FOOTHILLS

CITY           SKY/WX    TMP DP  RH WIND       PRES   REMARKS
CHARLOTTESVILL PTSUNNY   82  69  64 S6        30.15F
ORANGE*        LGT RAIN  79  73  83 SE3       30.17S

$$

VAZ055>057-221900-
NORTH AND CENTRAL PIEDMONT

CITY           SKY/WX    TMP DP  RH WIND       PRES   REMARKS
FREDERICKSBRG* CLOUDY    83  70  64 CALM      30.14F
STAFFORD*      CLOUDY    82  71  67 SE5       30.19F

$$

NCZ024-NYZ072-PAZ021-071-VAZ022-071-221900-
OTHER REGIONAL OBSERVATIONS

CITY           SKY/WX    TMP DP  RH WIND       PRES   REMARKS
NEW YORK CITY  MOSUNNY   84  67  56 CALM      30.14F
PHILADELPHIA   MOSUNNY   86  64  47 SW9       30.14F
PITTSBURGH     MOSUNNY   86  67  52 VRB3      30.11F
ROANOKE        CLOUDY    81  66  60 SE8       30.18F
RICHMOND       CLOUDY    85  67  54 SE3       30.15F
RALEIGH        LGT RAIN  79  74  84 S6        30.14F

$$

ANZ530>537-221900-
MARINE OBSERVATIONS

STATION/POSITION TIME  TEMP    WIND        PRES
                       AIR SEA DIR/SP/G
                 (UTC) (F)     (DEG/KT/KT) (MB)
THOMAS PT LIGHT  1800   78 80  170/  8/  9 1021.8F
BALT KEY BRIDGE  1800   87     130/  9/ 10 1020.8F
COVE POINT       1800   77     180/ 11/ 12 1021.3F
LEWISETTA        1800   78 80  100/ 13/ 15 1021.0S
SOLOMONS ISLAND  1800      81                N/A
PINEY POINT      1800          130/ 12/ 13   N/A

$$




USA.gov is the U.S. government's official web portal to all federal, state and local government web resources and services.